www.pogodaiklimat.ru

Погода и климат >> Архив погоды >> Франция >> Дю Талю


ПОГОДА в Дю Талю

  • Прогноз погоды в Дю Талю
  • Монитор погоды в Дю Талю

АРХИВ ПОГОДЫ в Дю Талю

Время (UTC), дата Ветер
(напр.,м/с)
 
Видим.   Явления Облачность Т
(С)
Тd
(С)
f
(%)
Тe
(С)
Тes
(С)
Комфортность P
(гПа)
Po
(гПа)
Тmin
(С)
Tmax
(С)
R
(мм)
R24
(мм)
S
(см)
13 13.09 СВ 3-4
{5}
н/о н/о +22.4 +15.7 66 +26 +26 жарко 1032.3 1027.2
14 13.09 С 3-4
{5}
н/о н/о +22.9 +16.4 67 +28 +28 душно 1031.7 1026.6
15 13.09 С 6
{11}
25 км 4/1 1500 м
[Cu hum Ac trans Ci fib]
+22.5 +15.8 66 +27 +28 душно 1030.9 1025.8
16 13.09 СВ 3-4
{5}
н/о н/о +22.4 +15.7 66 +26 +26 жарко 1030.9 1025.8
17 13.09 С 3-4
{5}
н/о н/о +21.9 +15.7 68 +26 +26 душно 1030.4 1025.3
18 13.09 С 4
{8}
25 км 1/0
[Ci fib]
+20.8 +15.6 72 +24 +24 комфорт 1030.6 1025.5 +14.8 +23.0
19 13.09 С 2-3
{3}
н/о н/о +18.8 +14.9 78 +21 +21 комфорт 1030.8 1025.7
20 13.09 С 3-5
{5}
н/о н/о +18.4 +15.1 81 +19 +19 1030.7 1025.6
21 13.09 С 8-6
{12}
н/о н/о +17.9 +14.8 82 +17 +17 1030.6 1025.4
22 13.09 С 5-6
{7}
н/о н/о +17.2 +14.8 86 +17 +17 1030.3 1025.1
23 13.09 С 5-7
{7}
н/о н/о +16.8 +15.1 90 +16 +16 1029.8 1024.6
00 14.09 С 9-7
{13}
н/о н/о +16.8 +15.3 91 +15 +15 1029.7 1024.5
01 14.09 СВ 5-7
{7}
н/о н/о +17.1 +15.4 90 +16 +16 1029.6 1024.4
02 14.09 СВ 4-6
{6}
н/о н/о +16.9 +15.2 90 +16 +16 1029.1 1023.9
03 14.09 СВ 8-6
{12}
н/о н/о +16.8 +15.1 90 +15 +15 1028.8 1023.6
04 14.09 СВ 5-7
{7}
н/о н/о +16.7 +15.1 90 +16 +16 1028.5 1023.3
05 14.09 СВ 5-6
{7}
н/о н/о +16.5 +14.9 90 +16 +16 1028.5 1023.3
06 14.09 СВ 9
{13}
25 км 3/0
[Ci fib]
+16.5 1028.8 +16.4 +20.8
07 14.09 СВ 5-7
{7}
н/о н/о +17.2 +15.0 87 +17 +17 1029.2 1024.0
08 14.09 СВ 5-7
{7}
н/о н/о +18.2 +15.3 83 +18 +18 1029.0 1023.9
09 14.09 СВ 8-6
{15}
25 км 5/0
[Ci fib]
+19.3 1028.6
10 14.09 СВ 4-6
{7}
н/о н/о +20.4 +15.8 75 +23 +23 комфорт 1028.4 1023.3
11 14.09 СВ 4-5
{7}
н/о н/о +21.6 +16.1 71 +25 +25 комфорт 1028.3 1023.2
12 14.09 С 7-5
{10}
н/о н/о +23.2 +16.3 65 +28 +28 душно 1027.6 1022.6
13 14.09 С 4-5
{5}
н/о н/о +24.1 +15.8 60 +27 +27 жарко 1027.3 1022.3
14 14.09 СВ 4-5
{5}
н/о н/о +25.4 +15.7 55 +29 +29 душно 1026.7 1021.7
15 14.09 СВ 5-4
{10}
н/о н/о +26.2 +15.6 52 +29 +29 жарко 1026.3 1021.3
16 14.09 СВ 2-4
{5}
н/о н/о +26.5 +15.8 52 +30 +30 душно 1025.8 1020.8
17 14.09 СВ 2-2
{4}
н/о н/о +26.2 +15.9 53 +29 +29 жарко 1025.8 1020.8
18 14.09 С 2
{5}
25 км 4/0
[Ci fib]
+24.0 +16.0 61 +27 +27 жарко 1025.9 1020.9 +16.5 +26.6
19 14.09 С 2-3
{3}
н/о н/о +20.2 +15.4 74 +23 +23 комфорт 1026.0 1020.9
20 14.09 С 3-4
{4}
н/о н/о +19.9 +15.1 74 +23 +23 комфорт 1026.0 1020.9
21 14.09 С 7-5
{9}
н/о н/о +19.8 +16.2 80 +22 +22 комфорт 1026.0 1020.9
22 14.09 С 5-6
{6}
н/о н/о +19.0 +15.5 80 +20 +20 1025.8 1020.7
23 14.09 СВ 4-6
{6}
н/о н/о +19.1 +15.2 78 +20 +20 1025.4 1020.3
00 15.09 СВ 8-5
{11}
н/о н/о +18.7 +15.2 80 +19 +19 1025.2 1020.1
01 15.09 СВ 4-5
{5}
н/о н/о +17.9 +15.0 83 +18 +18 1025.1 1020.0
02 15.09 СВ 3-5
{5}
н/о н/о +18.0 +15.1 83 +18 +18 1025.0 1019.9
03 15.09 СВ 7-5
{9}
н/о н/о +17.6 +14.7 83 +17 +17 1024.6 1019.5
04 15.09 СВ 4-4
{5}
н/о н/о +17.2 +14.5 84 +17 +17 1024.0 1018.9
05 15.09 СВ 4-5
{5}
н/о н/о +16.9 +14.5 86 +17 +17 1024.1 1019.0
06 15.09 СВ 8
{10}
25 км ясно +16.4 +14.1 86 +15 +15 1024.5 1019.4 +16.3 +24.0
07 15.09 СВ 4-5
{6}
н/о н/о +17.4 +14.3 82 +17 +17 1024.5 1019.4
08 15.09 С 4-6
{6}
н/о н/о +18.8 +14.5 76 +20 +20 1024.7 1019.6
09 15.09 СВ 8-6
{12}
н/о н/о +20.2 +14.8 71 +22 +22 комфорт 1025.1 1020.0
10 15.09 СВ 4-5
{6}
н/о н/о +21.5 +15.1 67 +25 +25 комфорт 1025.3 1020.2
11 15.09 СВ 3-4
{5}
н/о н/о +23.5 +15.8 62 +27 +27 душно 1024.8 1019.8
12 15.09 В 4-4
{9}
25 км ясно +24.5 +16.2 60 +28 +36 душно 1024.1 1019.1
13 15.09 С 3-4
{4}
н/о н/о +25.6 +15.9 55 +29 +29 душно 1023.9 1018.9
14 15.09 СВ 2-4
{5}
н/о н/о +26.9 +15.3 49 +30 +30 душно 1023.3 1018.3
15 15.09 ЮЗ 1-1
{6}
25 км ясно +25.1 +15.7 56 +28 +35 жарко 1022.8 1017.8
16 15.09 СЗ 1-2
{2}
н/о н/о +23.1 +16.6 67 +28 +28 душно 1022.6 1017.6
17 15.09 СЗ 2-4
{4}
н/о н/о +22.3 +16.1 68 +26 +26 жарко 1022.4 1017.4
18 15.09 С 4-3
{6}
н/о н/о +21.1 +16.1 73 +24 +24 комфорт 1022.4 1017.3 +16.4 +27.3
19 15.09 С 3-3
{4}
н/о н/о +19.8 +15.6 77 +22 +22 комфорт 1022.5 1017.4
20 15.09 С 3-5
{5}
н/о н/о +19.7 +15.8 78 +22 +22 комфорт 1022.8 1017.7
21 15.09 С 9-6
{12}
н/о н/о +19.0 +13.6 71 +19 +19 1022.8 1017.7
22 15.09 С 4-5
{6}
н/о н/о +17.8 +13.1 74 +18 +18 1022.9 1017.8
23 15.09 С 4-6
{6}
н/о н/о +16.9 +12.2 74 +16 +16 1022.7 1017.6
00 16.09 С 8-6
{11}
н/о н/о +16.2 +12.2 77 +15 +15 1022.5 1017.4
01 16.09 С 5-6
{6}
н/о н/о +15.7 +11.5 76 +15 +15 1022.4 1017.2
02 16.09 С 5-6
{6}
н/о н/о +15.3 +12.2 82 +14 +14 1022.2 1017.0
03 16.09 СВ 6-4
{12}
н/о н/о +15.2 +12.3 83 +14 +14 1022.5 1017.3
04 16.09 С 4-5
{5}
н/о н/о +14.7 +12.2 85 +14 +14 1021.9 1016.7
05 16.09 СВ 4-5
{5}
н/о н/о +14.5 +12.4 87 +13 +13 1021.9 1016.7
06 16.09 С 3
{9}
н/о н/о +14.1 +12.3 89 +13 +13 1022.5 1017.3 +14.1 +21.0
07 16.09 С 3-5
{5}
н/о н/о +14.9 +12.6 86 +14 +14 1022.3 1017.1
08 16.09 С 4-5
{5}
н/о н/о +16.0 +12.9 82 +15 +15 1022.7 1017.6
09 16.09 С 6-5
{10}
18 км 3/0
[Ci fib]
+17.4 +13.1 76 +17 +18 1022.9 1017.8
10 16.09 С 4-5
{6}
н/о н/о +18.9 +14.0 73 +20 +20 1022.9 1017.8
11 16.09 С 1-2
{5}
н/о н/о +21.7 +14.3 63 +25 +25 комфорт 1022.8 1017.8
12 16.09 С 5-4
{8}
18 км 3/0
[Ci fib]
+21.8 +14.2 62 +25 +30 комфорт 1022.6 1017.6
13 16.09 С 2-4
{4}
н/о н/о +23.1 +14.6 59 +27 +27 душно 1022.2 1017.2
14 16.09 З 2-3
{3}
н/о н/о +21.2 +15.3 69 +24 +24 комфорт 1021.8 1016.8
15 16.09 СЗ 4-3
{8}
18 км 3/0
[Ci fib]
+22.4 +15.5 65 +26 +30 жарко 1021.4 1016.4
16 16.09 З 2-3
{4}
н/о н/о +20.6 +15.4 72 +24 +24 комфорт 1021.3 1016.2
17 16.09 СЗ 2-3
{3}
н/о н/о +19.8 +14.4 71 +22 +22 комфорт 1021.1 1016.0
18 16.09 СЗ 4
{6}
25 км 5/0
[Ci fib]
+18.9 +13.5 71 +20 +20 1021.0 1015.9 +14.0 +23.8
19 16.09 С 2-3
{3}
н/о н/о +18.2 +13.3 73 +19 +19 1021.5 1016.4
20 16.09 С 4-6
{6}
н/о н/о +18.3 +14.6 79 +19 +19 1021.6 1016.5
21 16.09 С 8
{11}
н/о н/о +16.7 +14.2 85 +15 +15 1021.9 1016.8
22 16.09 С 4-6
{6}
н/о н/о +15.6 +14.0 90 +15 +15 1022.0 1016.9
23 16.09 С 4-6
{6}
н/о н/о +15.1 +13.8 92 +14 +14 1021.8 1016.6
00 17.09 С 5-4
{10}
н/о н/о +15.0 +13.9 93 +14 +14 1021.8 1016.6
01 17.09 С 3-5
{5}
н/о н/о +15.0 +13.9 93 +14 +14 1021.6 1016.4
02 17.09 С 4-6
{6}
н/о н/о +14.9 +13.8 93 +14 +14 1021.3 1016.1
03 17.09 СВ 4-4
{12}
н/о н/о +14.9 +13.6 92 +14 +14 1021.5 1016.3
04 17.09 СВ 3-4
{4}
н/о н/о +15.0 +13.7 92 +14 +14 1021.3 1016.1
05 17.09 СВ 3-4
{5}
н/о н/о +15.4 +13.9 91 +15 +15 1021.7 1016.5
06 17.09 СВ 5
{8}
н/о н/о +15.5 +13.9 90 +14 +14 1021.6 1016.5 +14.8 +18.9
07 17.09 СВ 3-4
{5}
н/о н/о +16.3 +14.3 88 +16 +16 1021.9 1016.8
08 17.09 СВ 4-6
{7}
н/о н/о +17.3 +14.2 82 +17 +17 1021.9 1016.8
09 17.09 СВ 8-6
{12}
н/о н/о +18.6 +14.5 77 +19 +19 1021.8 1016.7
10 17.09 СВ 4-7
{7}
н/о н/о +19.9 +14.7 72 +22 +22 комфорт 1021.7 1016.6
11 17.09 СВ 4-6
{7}
н/о н/о +20.3 +14.9 71 +23 +23 комфорт 1021.9 1016.8
12 17.09 СВ 6-5
{11}
20 км 1/0
[Ci fib]
+21.9 +15.3 66 +25 +29 комфорт 1021.6 1016.6
13 17.09 СВ 3-5
{6}
н/о н/о +23.3 +15.6 62 +28 +28 душно 1021.0 1016.0
14 17.09 СВ 3-4
{6}
н/о н/о +24.0 +15.0 57 +27 +27 жарко 1020.9 1015.9
15 17.09 С 7-6
{11}
20 км 5/0
[Ac trans]
+23.7 1020.8
16 17.09 СВ 4-6
{6}
н/о н/о +22.9 +15.2 62 +27 +27 душно 1020.4 1015.4
17 17.09 СВ 4-6
{7}
н/о н/о +21.5 +15.3 68 +25 +25 комфорт 1020.2 1015.2
18 17.09 СВ 7-5
{12}
н/о н/о +20.2 +15.0 72 +22 +22 комфорт 1020.4 1015.3 +15.4 +24.3
19 17.09 С 4-6
{6}
н/о н/о +19.2 +14.7 75 +21 +21 комфорт 1020.7 1015.6
20 17.09 С 4-6
{6}
н/о н/о +18.3 +14.4 78 +19 +19 1021.2 1016.1
21 17.09 С 8-6
{12}
н/о н/о +17.4 +14.1 81 +16 +16 1021.4 1016.3
22 17.09 С 4-6
{6}
н/о н/о +16.6 +13.5 82 +16 +16 1021.6 1016.5
23 17.09 С 4-5
{7}
н/о н/о +16.0 +13.3 84 +15 +15 1021.8 1016.7
00 18.09 С 8-6
{12}
н/о н/о +15.6 +12.9 84 +14 +14 1021.6 1016.5
01 18.09 С 5-7
{7}
н/о н/о +15.0 +11.9 82 +14 +14 1021.7 1016.5
02 18.09 СВ 5-7
{7}
н/о н/о +14.7 +11.7 82 +13 +13 1021.8 1016.6
03 18.09 СВ 8-6
{13}
н/о н/о +14.3 +11.3 82 +12 +12 1022.0 1016.8
04 18.09 СВ 5-6
{7}
н/о н/о +13.9 +10.9 82 +12 +12 1021.9 1016.7
05 18.09 СВ 4-6
{7}
н/о н/о +13.5 +10.5 82 +12 +12 1022.4 1017.2
06 18.09 СВ 8
{13}
20 км ясно +13.5 1022.6 +13.3 +20.2
07 18.09 СВ 5-7
{7}
н/о н/о +13.8 +9.4 75 +12 +12 1023.0 1017.8
08 18.09 СВ 5-8
{8}
н/о н/о +14.3 +9.3 72 +13 +13 1023.4 1018.2
09 18.09 СВ 9-7
{15}
20 км ясно +15.6 1023.6
10 18.09 СВ 5-7
{7}
н/о н/о +16.6 +9.5 63 +16 +16 1023.4 1018.3
11 18.09 СВ 5-7
{7}
н/о н/о +18.5 +10.1 58 +19 +19 1023.2 1018.1
12 18.09 СВ 9-7
{14}
25 км ясно +19.1 1023.4
13 18.09 СВ 4-7
{7}
н/о н/о +21.1 +7.3 41 +22 +22 комфорт 1023.0 1017.9
14 18.09 С 5-7
{8}
н/о н/о +21.3 +6.4 38 +22 +22 комфорт 1022.9 1017.8
15 18.09 СВ 8-7
{16}
25 км ясно +21.6 1022.6
16 18.09 СВ 5-7
{7}
н/о н/о +21.4 +6.1 37 +22 +22 комфорт 1022.2 1017.1
17 18.09 СВ 4-6
{7}
н/о н/о +20.7 +5.9 38 +22 +22 комфорт 1022.4 1017.3
18 18.09 СВ 6
{12}
25 км ясно +18.9 1022.9 +13.5 +21.8
19 18.09 СВ 4-6
{6}
н/о н/о +18.4 +6.2 45 +19 +19 1023.3 1018.2
20 18.09 С 4-6
{6}
н/о н/о +17.1 +8.2 56 +17 +17 1023.7 1018.6
21 18.09 СВ 8-6
{12}
н/о н/о +16.6 +9.3 62 +15 +15 1024.2 1019.0
22 18.09 СВ 5-7
{8}
н/о н/о +16.1 +9.7 66 +15 +15 1024.9 1019.7
23 18.09 СВ 5-7
{7}
н/о н/о +15.4 +9.5 68 +14 +14 1025.1 1019.9
00 19.09 СВ 9-7
{15}
н/о н/о +14.9 +9.7 71 +13 +13 1025.1 1019.9
01 19.09 СВ 4-6
{7}
н/о н/о +14.7 +9.1 69 +14 +14 1025.4 1020.2
02 19.09 СВ 4-7
{7}
н/о н/о +14.5 +8.7 68 +13 +13 1025.1 1019.9
03 19.09 СВ 8-7
{13}
н/о н/о +13.8 +8.6 71 +11 +11 1025.0 1019.8
04 19.09 СВ 4-6
{7}
н/о н/о +13.4 +8.5 72 +12 +12 1024.8 1019.6
05 19.09 СВ 5-7
{7}
н/о н/о +13.3 +7.9 70 +12 +12 1024.6 1019.4
06 19.09 СВ 8
{13}
н/о н/о +13.3 +7.9 70 +11 +11 1025.0 1019.8 +13.2 +18.9
07 19.09 СВ 5-8
{8}
н/о н/о +14.1 +7.8 66 +13 +13 1025.2 1020.0
08 19.09 СВ 5-7
{7}
н/о н/о +15.3 +7.8 61 +14 +14 1025.5 1020.3
09 19.09 СВ 11-18
{18}
25 км ясно +16.4 1025.8
10 19.09 СВ 5-9
{9}
н/о н/о +17.8 +7.5 51 +17 +17 1025.6 1020.5
11 19.09 СВ 6-8
{9}
н/о н/о +18.7 +7.2 47 +19 +19 1025.2 1020.1
12 19.09 СВ 11-17
{17}
25 км ясно +20.1 1024.6
13 19.09 СВ 5-8
{10}
н/о н/о +20.8 +6.7 40 +22 +22 комфорт 1024.1 1019.0
14 19.09 СВ 4-7
{8}
н/о н/о +21.7 +6.8 38 +22 +22 комфорт 1023.6 1018.5
15 19.09 СВ 10-15
{15}
25 км ясно +22.0 1022.8
16 19.09 СВ 5-7
{8}
н/о н/о +21.9 +7.7 40 +23 +23 комфорт 1022.5 1017.4
17 19.09 СВ 4-7
{8}
н/о н/о +21.0 +8.6 45 +23 +23 комфорт 1022.3 1017.2
18 19.09 СВ 8
{13}
25 км ясно +19.3 1022.1 +13.2 +22.2
19 19.09 СВ 4-6
{7}
н/о н/о +18.4 +9.2 55 +19 +19 1022.4 1017.3
20 19.09 СВ 3-5
{5}
н/о н/о +17.5 +9.6 60 +17 +17 1022.9 1017.8
21 19.09 СВ 8-5
{11}
н/о н/о +17.2 +9.4 60 +16 +16 1023.1 1018.0
22 19.09 В 5-7
{8}
н/о н/о +17.2 +8.1 55 +17 +17 1023.0 1017.9
23 19.09 СВ 5-7
{8}
н/о н/о +16.4 +7.9 57 +16 +16 1022.5 1017.4
00 20.09 В 9-7
{14}
н/о н/о +15.9 +7.4 57 +14 +14 1022.1 1016.9
01 20.09 В 5-8
{8}
н/о н/о +15.4 +6.7 56 +14 +14 1021.6 1016.4
02 20.09 В 5-8
{8}
н/о н/о +15.0 +6.3 56 +14 +14 1021.0 1015.8
03 20.09 В 9-17
{17}
н/о н/о +14.8 +5.6 54 +13 +13 1020.4 1015.2
04 20.09 СВ 4-7
{8}
н/о н/о +14.3 +6.1 58 +13 +13 1019.8 1014.6
05 20.09 В 4-7
{7}
н/о н/о +14.1 +5.2 55 +13 +13 1019.3 1014.1
06 20.09 В 8
{14}
н/о н/о +13.5 +5.4 58 +11 +11 1019.1 1013.9 +13.5 +19.4
07 20.09 В 5-7
{7}
н/о н/о +14.1 +5.7 57 +13 +13 1018.8 1013.6
08 20.09 В 5-8
{8}
н/о н/о +14.8 +5.8 55 +13 +13 1018.7 1013.5
09 20.09 В 12-17
{19}
25 км ясно +15.7 +6.1 53 +13 +13 1018.2 1013.1
10 20.09 В 6-9
{10}
н/о н/о +16.7 +6.5 51 +16 +16 1017.9 1012.8
11 20.09 В 4-8
{9}
н/о н/о +18.0 +7.1 49 +18 +18 1017.2 1012.1

 

Местоположение метеостанции Дю Талю (Франция): широта 47.30 долгота -3.17 высота над уровнем моря 43 м.

В архиве по умолчанию представлена погода в Дю Талю за последнюю неделю. Архивные данные за месяц целиком и за предыдущие месяцы, начиная с января 2011 года, Вы можете получить, выбрав интересующий диапазон дат из раскрывающегося списка и нажав кнопку "Ввод!".


*Определитесь, кто Вы:
робот инопланетянин человек

Внимание! Время в таблицах - всемирное. Для получения местного времени необходимо прибавить поправку, которая равна 1 ч.

Смотрите также архив погоды в соседних городах и на ближайших метеорологических станциях:

Погода на Груа (Франция) (46 км)
Погода в Лорьене (Франция) (56 км)
Погода на Шемулене (Франция) (66 км)
Погода в Сен-Назере (Франция) (75 км)
Погода на Йе (Франция) (92 км)
Погода в Кемпере (Франция) (106 км)
Погода в Пенмарше (Франция) (106 км)
Погода в Нанте (Франция) (120 км)
Погода в Ренне (Франция) (138 км)
Погода в Сен-Бриё аэропорту (Франция) (139 км)

Пояснения к столбцам:

Ветер - указаны скорость ветра в м/с - средняя за 10 мин, порывы в срок и между сроками (в фигурных скобках) и направление, откуда дует ветер: С - северный, СВ - северо-восточный, В - восточный, ЮВ - юго-восточный, Ю - южный, ЮЗ - юго-западный, З - западный, СЗ - северо-западный.
Видимость - горизонтальная дальность видимости в метрах или километрах. При видимости от 1 до 10 км при отсутствии осадков обычно наблюдается дымка, при ухудшении видимости до 1 км и менее - туман. В сухую погоду видимость может ухудшаться дымом, пылью или мглою.
Явления - указаны атмосферные явления, наблюдавшиеся в срок или в последний час перед сроком; фигурными скобками обозначены явления, наблюдавшиеся между сроками (за 1-3 часа до срока); квадратными скобками обозначены град или гололедные отложения с указанием их диаметра в мм.
Облачность - указаны через наклонную черту общая и нижняя облачность в баллах и высота нижней границы облаков в метрах; квадратными скобками обозначены формы облаков: Ci - перистые, Cs - перисто-слоистые, Cc - перисто-кучевые, Ac - высококучевые, As - высокослоистые, Sc - слоисто-кучевые, Ns - слоисто-дождевые, Cu - кучевые, Cb - кучево-дождевые. Подробнее классификацию облаков см. в Атласе облаков (PDF).
T - Температура воздуха - температура, измеренная на высоте 2 м над землей.
Td - Температура точки росы - температура, при понижении до которой содержащийся в воздухе водяной пар достигнет насыщения.
f - Относительная влажность воздуха - влажноcть воздуха, измеренная на высоте 2 м над землей.
Te - Эффективная температура - температура, которую ощущает одетый по сезону человек в тени. Характеристика душности погоды. При расчете учитывается влияние влажности воздуха и скорости ветра на теплоощущения человека.
Tes - Эффективная температура на солнце - температура, которую ощущает человек, с поправкой на солнечный нагрев. Характеристика знойности погоды. Зависит от высоты солнца над горизонтом, облачности и скорости ветра. Ночью, в пасмурную погоду, а также при ветре 12 м/с и более поправка равна нулю.
P - Атмосферное давление - приведенное к уровню моря атмосферное давление.
Po - Атмосферное давление - измеренное на уровне метеостанции атмосферное давление.
Tmin - Минимальная температура - минимум температуры воздуха на высоте 2 м над землей.
Tmax - Максимальная температура - максимум температуры воздуха на высоте 2 м над землей.
R - Количество осадков - Количество выпавших осадков за период времени, мм. При наведении курсора мыши на число - период времени, за который выпало указанное количество осадков.
R24 - Количество осадков - Количество выпавших осадков за 24 часа, мм.
S - Снежный покров - Высота снежного покрова, см. При наведении курсора мыши на число - состояние снежного покрова и степень покрытия местности в баллах.